contact:dominique.lefevre@mio.osupytheas.fr, maurice.libes@osupytheas.fr, didier.mallarino@osupytheas.fr
Project:EMSO http://www.emso-fr.org/EMSO-France
Depth: 2436.0 m
Title:EMSO Ligure Ouest : Data MII capteur MICROCAT
DateTime_Computer,Latitude,Longitude,Temperature,Conductivity,Pressure,DateTime_Instrument
DateTime_Computer,Latitude,Longitude,degC,S m-1,dbar,DateTime_Instrument
2020-11-20T00:00:05Z,42.805,6.029,13.2968,4.59991,2470.156,2020-11-20T02:01:02Z
2020-11-20T00:03:08Z,42.805,6.029,13.2978,4.59989,2470.156,2020-11-20T02:04:05Z
2020-11-20T00:06:11Z,42.805,6.029,13.2971,4.59990,2470.147,2020-11-20T02:07:08Z
2020-11-20T00:09:14Z,42.805,6.029,13.2973,4.59986,2470.171,2020-11-20T02:10:11Z
2020-11-20T00:12:17Z,42.805,6.029,13.2976,4.59986,2470.156,2020-11-20T02:13:14Z
2020-11-20T00:15:20Z,42.805,6.029,13.2974,4.59990,2470.143,2020-11-20T02:16:17Z
2020-11-20T00:18:24Z,42.805,6.029,13.2974,4.59991,2470.147,2020-11-20T02:19:21Z
2020-11-20T00:21:27Z,42.805,6.029,13.2973,4.59990,2470.133,2020-11-20T02:22:24Z
2020-11-20T00:24:30Z,42.805,6.029,13.2974,4.59988,2470.147,2020-11-20T02:25:27Z
2020-11-20T00:27:33Z,42.805,6.029,13.2974,4.59982,2470.133,2020-11-20T02:28:30Z
2020-11-20T00:30:36Z,42.805,6.029,13.2972,4.59984,2470.133,2020-11-20T02:31:33Z
2020-11-20T00:33:39Z,42.805,6.029,13.2969,4.59986,2470.147,2020-11-20T02:34:36Z
2020-11-20T00:36:42Z,42.805,6.029,13.2974,4.59981,2470.133,2020-11-20T02:37:39Z
2020-11-20T00:39:46Z,42.805,6.029,13.2974,4.59988,2470.133,2020-11-20T02:40:42Z
2020-11-20T00:42:49Z,42.805,6.029,13.2974,4.59983,2470.171,2020-11-20T02:43:46Z
2020-11-20T00:45:52Z,42.805,6.029,13.2973,4.59984,2470.147,2020-11-20T02:46:49Z
2020-11-20T00:48:55Z,42.805,6.029,13.2971,4.59985,2470.171,2020-11-20T02:49:52Z
2020-11-20T00:51:58Z,42.805,6.029,13.2972,4.59983,2470.11,2020-11-20T02:52:55Z
2020-11-20T00:55:01Z,42.805,6.029,13.2972,4.59988,2470.156,2020-11-20T02:55:58Z
2020-11-20T00:58:04Z,42.805,6.029,13.2973,4.59986,2470.11,2020-11-20T02:59:01Z
2020-11-20T01:01:07Z,42.805,6.029,13.2976,4.59988,2470.11,2020-11-20T03:02:04Z
2020-11-20T01:04:10Z,42.805,6.029,13.2975,4.59987,2470.133,2020-11-20T03:05:07Z
2020-11-20T01:07:14Z,42.805,6.029,13.2974,4.59989,2470.147,2020-11-20T03:08:10Z
2020-11-20T01:10:17Z,42.805,6.029,13.2970,4.59984,2470.171,2020-11-20T03:11:14Z
2020-11-20T01:13:20Z,42.805,6.029,13.2973,4.59982,2470.133,2020-11-20T03:14:17Z
2020-11-20T01:16:23Z,42.805,6.029,13.2971,4.59987,2470.147,2020-11-20T03:17:20Z
2020-11-20T01:19:26Z,42.805,6.029,13.2976,4.59985,2470.133,2020-11-20T03:20:23Z
2020-11-20T01:22:29Z,42.805,6.029,13.2973,4.59991,2470.1,2020-11-20T03:23:26Z
2020-11-20T01:25:32Z,42.805,6.029,13.2976,4.59987,2470.087,2020-11-20T03:26:29Z
2020-11-20T01:28:35Z,42.805,6.029,13.2975,4.59986,2470.133,2020-11-20T03:29:32Z
2020-11-20T01:31:39Z,42.805,6.029,13.2972,4.59984,2470.063,2020-11-20T03:32:35Z
2020-11-20T01:34:42Z,42.805,6.029,13.2976,4.59981,2470.087,2020-11-20T03:35:39Z
2020-11-20T01:37:45Z,42.805,6.029,13.2976,4.59979,2470.11,2020-11-20T03:38:42Z
2020-11-20T01:40:48Z,42.805,6.029,13.2975,4.59980,2470.124,2020-11-20T03:41:45Z
2020-11-20T01:43:51Z,42.805,6.029,13.2973,4.59981,2470.1,2020-11-20T03:44:48Z
2020-11-20T01:46:54Z,42.805,6.029,13.2975,4.59983,2470.133,2020-11-20T03:47:51Z
2020-11-20T01:49:57Z,42.805,6.029,13.2972,4.59978,2470.11,2020-11-20T03:50:54Z
2020-11-20T01:53:00Z,42.805,6.029,13.2974,4.59980,2470.11,2020-11-20T03:53:57Z
2020-11-20T01:56:04Z,42.805,6.029,13.2974,4.59979,2470.124,2020-11-20T03:57:00Z
2020-11-20T01:59:07Z,42.805,6.029,13.2970,4.59985,2470.087,2020-11-20T04:00:04Z
2020-11-20T02:02:10Z,42.805,6.029,13.2971,4.59981,2470.11,2020-11-20T04:03:07Z
2020-11-20T02:05:13Z,42.805,6.029,13.2971,4.59981,2470.087,2020-11-20T04:06:10Z
2020-11-20T02:08:16Z,42.805,6.029,13.2970,4.59978,2470.1,2020-11-20T04:09:13Z
2020-11-20T02:11:19Z,42.805,6.029,13.2970,4.59976,2470.087,2020-11-20T04:12:16Z
2020-11-20T02:14:22Z,42.805,6.029,13.2971,4.59977,2470.087,2020-11-20T04:15:19Z
2020-11-20T02:17:25Z,42.805,6.029,13.2971,4.59977,2470.087,2020-11-20T04:18:22Z
2020-11-20T02:20:29Z,42.805,6.029,13.2974,4.59979,2470.063,2020-11-20T04:21:25Z
2020-11-20T02:23:32Z,42.805,6.029,13.2976,4.59976,2470.124,2020-11-20T04:24:29Z
2020-11-20T02:26:35Z,42.805,6.029,13.2972,4.59979,2470.124,2020-11-20T04:27:32Z
2020-11-20T02:29:38Z,42.805,6.029,13.2974,4.59980,2470.077,2020-11-20T04:30:35Z
2020-11-20T02:32:41Z,42.805,6.029,13.2974,4.59986,2470.124,2020-11-20T04:33:38Z
2020-11-20T02:35:44Z,42.805,6.029,13.2974,4.59982,2470.124,2020-11-20T04:36:41Z
2020-11-20T02:38:47Z,42.805,6.029,13.2974,4.59980,2470.087,2020-11-20T04:39:44Z
2020-11-20T02:41:50Z,42.805,6.029,13.2970,4.59980,2470.077,2020-11-20T04:42:47Z
2020-11-20T02:44:54Z,42.805,6.029,13.2975,4.59980,2470.11,2020-11-20T04:45:50Z
2020-11-20T02:47:57Z,42.805,6.029,13.2973,4.59978,2470.077,2020-11-20T04:48:54Z
2020-11-20T02:51:00Z,42.805,6.029,13.2972,4.59982,2470.077,2020-11-20T04:51:57Z
2020-11-20T02:54:03Z,42.805,6.029,13.2969,4.59979,2470.077,2020-11-20T04:55:00Z
2020-11-20T02:57:06Z,42.805,6.029,13.2975,4.59978,2470.077,2020-11-20T04:58:03Z
2020-11-20T03:00:09Z,42.805,6.029,13.2973,4.59979,2470.1,2020-11-20T05:01:06Z
2020-11-20T03:03:12Z,42.805,6.029,13.2974,4.59981,2470.087,2020-11-20T05:04:09Z
2020-11-20T03:06:15Z,42.805,6.029,13.2974,4.59979,2470.1,2020-11-20T05:07:12Z
2020-11-20T03:09:18Z,42.805,6.029,13.2973,4.59986,2470.077,2020-11-20T05:10:15Z
2020-11-20T03:12:22Z,42.805,6.029,13.2975,4.59981,2470.11,2020-11-20T05:13:19Z
2020-11-20T03:15:25Z,42.805,6.029,13.2973,4.59976,2470.087,2020-11-20T05:16:22Z
2020-11-20T03:18:28Z,42.805,6.029,13.2976,4.59980,2470.073,2020-11-20T05:19:25Z
2020-11-20T03:21:31Z,42.805,6.029,13.2971,4.59978,2470.077,2020-11-20T05:22:28Z
2020-11-20T03:24:34Z,42.805,6.029,13.2973,4.59978,2470.063,2020-11-20T05:25:31Z
2020-11-20T03:27:37Z,42.805,6.029,13.2971,4.59976,2470.087,2020-11-20T05:28:34Z
2020-11-20T03:30:40Z,42.805,6.029,13.2973,4.59976,2470.1,2020-11-20T05:31:37Z
2020-11-20T03:33:43Z,42.805,6.029,13.2974,4.59976,2470.077,2020-11-20T05:34:40Z
2020-11-20T03:36:47Z,42.805,6.029,13.2972,4.59976,2470.063,2020-11-20T05:37:43Z
2020-11-20T03:39:50Z,42.805,6.029,13.2975,4.59981,2470.063,2020-11-20T05:40:47Z
2020-11-20T03:42:53Z,42.805,6.029,13.2976,4.59979,2470.04,2020-11-20T05:43:50Z
2020-11-20T03:45:56Z,42.805,6.029,13.2974,4.59978,2470.077,2020-11-20T05:46:53Z
2020-11-20T03:48:59Z,42.805,6.029,13.2977,4.59977,2470.063,2020-11-20T05:49:56Z
2020-11-20T03:52:02Z,42.805,6.029,13.2973,4.59976,2470.063,2020-11-20T05:52:59Z
2020-11-20T03:55:05Z,42.805,6.029,13.2973,4.59977,2470.053,2020-11-20T05:56:02Z
2020-11-20T03:58:08Z,42.805,6.029,13.2973,4.59978,2470.087,2020-11-20T05:59:05Z
2020-11-20T04:01:12Z,42.805,6.029,13.2974,4.59977,2470.063,2020-11-20T06:02:08Z
2020-11-20T04:04:15Z,42.805,6.029,13.2977,4.59981,2470.053,2020-11-20T06:05:12Z
2020-11-20T04:07:18Z,42.805,6.029,13.2974,4.59981,2470.077,2020-11-20T06:08:15Z
2020-11-20T04:10:21Z,42.805,6.029,13.2973,4.59976,2470.04,2020-11-20T06:11:18Z
2020-11-20T04:13:24Z,42.805,6.029,13.2975,4.59981,2470.1,2020-11-20T06:14:21Z
2020-11-20T04:16:27Z,42.805,6.029,13.2974,4.59976,2470.077,2020-11-20T06:17:24Z
2020-11-20T04:19:30Z,42.805,6.029,13.2974,4.59976,2470.063,2020-11-20T06:20:27Z
2020-11-20T04:22:33Z,42.805,6.029,13.2971,4.59977,2470.063,2020-11-20T06:23:30Z
2020-11-20T04:25:37Z,42.805,6.029,13.2971,4.59976,2470.053,2020-11-20T06:26:33Z
2020-11-20T04:28:40Z,42.805,6.029,13.2974,4.59978,2470.077,2020-11-20T06:29:37Z
2020-11-20T04:31:43Z,42.805,6.029,13.2974,4.59978,2470.063,2020-11-20T06:32:40Z
2020-11-20T04:34:46Z,42.805,6.029,13.2973,4.59980,2470.063,2020-11-20T06:35:43Z
2020-11-20T04:37:49Z,42.805,6.029,13.2971,4.59981,2470.04,2020-11-20T06:38:46Z
2020-11-20T04:40:52Z,42.805,6.029,13.2977,4.59979,2470.063,2020-11-20T06:41:49Z
2020-11-20T04:43:55Z,42.805,6.029,13.2976,4.59978,2470.063,2020-11-20T06:44:52Z
2020-11-20T04:46:58Z,42.805,6.029,13.2968,4.59981,2470.11,2020-11-20T06:47:55Z
2020-11-20T04:50:02Z,42.805,6.029,13.2972,4.59977,2470.063,2020-11-20T06:50:58Z
2020-11-20T04:53:05Z,42.805,6.029,13.2973,4.59981,2470.124,2020-11-20T06:54:02Z
2020-11-20T04:56:08Z,42.805,6.029,13.2971,4.59977,2470.077,2020-11-20T06:57:05Z
2020-11-20T04:59:11Z,42.805,6.029,13.2976,4.59974,2470.04,2020-11-20T07:00:08Z
2020-11-20T05:02:14Z,42.805,6.029,13.2973,4.59978,2470.017,2020-11-20T07:03:11Z
2020-11-20T05:05:17Z,42.805,6.029,13.2978,4.59976,2470.053,2020-11-20T07:06:14Z
2020-11-20T05:08:20Z,42.805,6.029,13.2977,4.59976,2470.063,2020-11-20T07:09:17Z
2020-11-20T05:11:23Z,42.805,6.029,13.2973,4.59983,2470.063,2020-11-20T07:12:20Z
2020-11-20T05:14:27Z,42.805,6.029,13.2973,4.59978,2470.063,2020-11-20T07:15:23Z
2020-11-20T05:17:30Z,42.805,6.029,13.2971,4.59981,2470.063,2020-11-20T07:18:27Z
2020-11-20T05:20:33Z,42.805,6.029,13.2976,4.59980,2470.053,2020-11-20T07:21:30Z
2020-11-20T05:23:36Z,42.805,6.029,13.2976,4.59977,2470.1,2020-11-20T07:24:33Z
2020-11-20T05:26:39Z,42.805,6.029,13.2976,4.59978,2470.063,2020-11-20T07:27:36Z
2020-11-20T05:29:42Z,42.805,6.029,13.2977,4.59979,2470.04,2020-11-20T07:30:39Z
2020-11-20T05:32:45Z,42.805,6.029,13.2974,4.59976,2470.04,2020-11-20T07:33:42Z
2020-11-20T05:35:48Z,42.805,6.029,13.2977,4.59976,2470.04,2020-11-20T07:36:45Z
2020-11-20T05:38:52Z,42.805,6.029,13.2971,4.59975,2470.077,2020-11-20T07:39:48Z
2020-11-20T05:41:55Z,42.805,6.029,13.2977,4.59976,2470.087,2020-11-20T07:42:52Z
2020-11-20T05:44:58Z,42.805,6.029,13.2974,4.59981,2470.077,2020-11-20T07:45:55Z
2020-11-20T05:48:01Z,42.805,6.029,13.2971,4.59977,2470.077,2020-11-20T07:48:58Z
2020-11-20T05:51:04Z,42.805,6.029,13.2974,4.59976,2470.053,2020-11-20T07:52:01Z
2020-11-20T05:54:07Z,42.805,6.029,13.2974,4.59976,2470.077,2020-11-20T07:55:04Z
2020-11-20T05:57:10Z,42.805,6.029,13.2975,4.59975,2470.077,2020-11-20T07:58:07Z
2020-11-20T06:00:13Z,42.805,6.029,13.2971,4.59975,2470.063,2020-11-20T08:01:10Z
2020-11-20T06:03:16Z,42.805,6.029,13.2971,4.59974,2470.077,2020-11-20T08:04:13Z
2020-11-20T06:06:20Z,42.805,6.029,13.2974,4.59975,2470.053,2020-11-20T08:07:17Z
2020-11-20T06:09:23Z,42.805,6.029,13.2971,4.59976,2470.087,2020-11-20T08:10:20Z
2020-11-20T06:12:26Z,42.805,6.029,13.2973,4.59975,2470.087,2020-11-20T08:13:23Z
2020-11-20T06:15:29Z,42.805,6.029,13.2972,4.59978,2470.063,2020-11-20T08:16:26Z
2020-11-20T06:18:32Z,42.805,6.029,13.2976,4.59980,2470.063,2020-11-20T08:19:29Z
2020-11-20T06:21:35Z,42.805,6.029,13.2974,4.59978,2470.1,2020-11-20T08:22:32Z
2020-11-20T06:24:38Z,42.805,6.029,13.2974,4.59976,2470.124,2020-11-20T08:25:35Z
2020-11-20T06:27:41Z,42.805,6.029,13.2974,4.59976,2470.063,2020-11-20T08:28:38Z
2020-11-20T06:30:45Z,42.805,6.029,13.2975,4.59978,2470.087,2020-11-20T08:31:42Z
2020-11-20T06:33:48Z,42.805,6.029,13.2974,4.59976,2470.11,2020-11-20T08:34:45Z
2020-11-20T06:36:51Z,42.805,6.029,13.2974,4.59978,2470.087,2020-11-20T08:37:48Z
2020-11-20T06:39:54Z,42.805,6.029,13.2973,4.59976,2470.063,2020-11-20T08:40:51Z
2020-11-20T06:42:57Z,42.805,6.029,13.2974,4.59975,2470.087,2020-11-20T08:43:54Z
2020-11-20T06:46:00Z,42.805,6.029,13.2972,4.59976,2470.077,2020-11-20T08:46:57Z
2020-11-20T06:49:03Z,42.805,6.029,13.2974,4.59976,2470.11,2020-11-20T08:50:00Z
2020-11-20T06:52:06Z,42.805,6.029,13.2971,4.59975,2470.087,2020-11-20T08:53:03Z
2020-11-20T06:55:10Z,42.805,6.029,13.2978,4.59976,2470.11,2020-11-20T08:56:07Z
2020-11-20T06:58:13Z,42.805,6.029,13.2972,4.59976,2470.1,2020-11-20T08:59:10Z
2020-11-20T07:01:16Z,42.805,6.029,13.2975,4.59978,2470.11,2020-11-20T09:02:13Z
2020-11-20T07:04:19Z,42.805,6.029,13.2971,4.59976,2470.11,2020-11-20T09:05:16Z
2020-11-20T07:07:22Z,42.805,6.029,13.2976,4.59978,2470.11,2020-11-20T09:08:19Z
2020-11-20T07:10:25Z,42.805,6.029,13.2974,4.59977,2470.156,2020-11-20T09:11:22Z
2020-11-20T07:13:28Z,42.805,6.029,13.2972,4.59976,2470.124,2020-11-20T09:14:25Z
2020-11-20T07:16:31Z,42.805,6.029,13.2976,4.59978,2470.133,2020-11-20T09:17:28Z
2020-11-20T07:19:35Z,42.805,6.029,13.2976,4.59990,2470.11,2020-11-20T09:20:31Z
2020-11-20T07:22:38Z,42.805,6.029,13.2972,4.59979,2470.147,2020-11-20T09:23:35Z
2020-11-20T07:25:41Z,42.805,6.029,13.2975,4.59978,2470.133,2020-11-20T09:26:38Z
2020-11-20T07:28:44Z,42.805,6.029,13.2973,4.59978,2470.11,2020-11-20T09:29:41Z
2020-11-20T07:31:47Z,42.805,6.029,13.2972,4.59978,2470.147,2020-11-20T09:32:44Z
2020-11-20T07:34:50Z,42.805,6.029,13.2974,4.59982,2470.133,2020-11-20T09:35:47Z
2020-11-20T07:37:53Z,42.805,6.029,13.2972,4.59978,2470.147,2020-11-20T09:38:50Z
2020-11-20T07:40:56Z,42.805,6.029,13.2974,4.59985,2470.156,2020-11-20T09:41:53Z
2020-11-20T07:44:00Z,42.805,6.029,13.2970,4.59978,2470.171,2020-11-20T09:44:57Z
2020-11-20T07:47:03Z,42.805,6.029,13.2970,4.59980,2470.156,2020-11-20T09:48:00Z
2020-11-20T07:50:06Z,42.805,6.029,13.2968,4.59980,2470.156,2020-11-20T09:51:03Z
2020-11-20T07:53:09Z,42.805,6.029,13.2971,4.59979,2470.147,2020-11-20T09:54:06Z
2020-11-20T07:56:12Z,42.805,6.029,13.2974,4.59981,2470.156,2020-11-20T09:57:09Z
2020-11-20T07:59:15Z,42.805,6.029,13.2969,4.59978,2470.194,2020-11-20T10:00:12Z
2020-11-20T08:02:18Z,42.805,6.029,13.2974,4.59978,2470.171,2020-11-20T10:03:15Z
2020-11-20T08:05:21Z,42.805,6.029,13.2971,4.59980,2470.203,2020-11-20T10:06:18Z
2020-11-20T08:08:25Z,42.805,6.029,13.2970,4.59979,2470.133,2020-11-20T10:09:21Z
2020-11-20T08:11:28Z,42.805,6.029,13.2973,4.59977,2470.156,2020-11-20T10:12:25Z
2020-11-20T08:14:31Z,42.805,6.029,13.2973,4.59978,2470.18,2020-11-20T10:15:28Z
2020-11-20T08:17:34Z,42.805,6.029,13.2974,4.59981,2470.156,2020-11-20T10:18:31Z
2020-11-20T08:20:37Z,42.805,6.029,13.2976,4.59977,2470.194,2020-11-20T10:21:34Z
2020-11-20T08:23:40Z,42.805,6.029,13.2974,4.59981,2470.203,2020-11-20T10:24:37Z
2020-11-20T08:26:43Z,42.805,6.029,13.2971,4.59979,2470.217,2020-11-20T10:27:40Z
2020-11-20T08:29:47Z,42.805,6.029,13.2974,4.59979,2470.24,2020-11-20T10:30:43Z
2020-11-20T08:32:50Z,42.805,6.029,13.2972,4.59979,2470.18,2020-11-20T10:33:47Z
2020-11-20T08:35:53Z,42.805,6.029,13.2967,4.59986,2470.217,2020-11-20T10:36:50Z
2020-11-20T08:38:56Z,42.805,6.029,13.2975,4.59979,2470.203,2020-11-20T10:39:53Z
2020-11-20T08:41:59Z,42.805,6.029,13.2976,4.59978,2470.194,2020-11-20T10:42:56Z
2020-11-20T08:45:02Z,42.805,6.029,13.2973,4.59979,2470.203,2020-11-20T10:45:59Z
2020-11-20T08:48:05Z,42.805,6.029,13.2976,4.59979,2470.203,2020-11-20T10:49:02Z
2020-11-20T08:51:08Z,42.805,6.029,13.2972,4.59978,2470.203,2020-11-20T10:52:05Z
2020-11-20T08:54:12Z,42.805,6.029,13.2971,4.59980,2470.203,2020-11-20T10:55:08Z
2020-11-20T08:57:15Z,42.805,6.029,13.2971,4.59983,2470.227,2020-11-20T10:58:12Z
2020-11-20T09:00:18Z,42.805,6.029,13.2975,4.59979,2470.18,2020-11-20T11:01:15Z
2020-11-20T09:03:21Z,42.805,6.029,13.2971,4.59978,2470.203,2020-11-20T11:04:18Z
2020-11-20T09:06:24Z,42.805,6.029,13.2969,4.59983,2470.203,2020-11-20T11:07:21Z
2020-11-20T09:09:27Z,42.805,6.029,13.2969,4.59980,2470.203,2020-11-20T11:10:24Z
2020-11-20T09:12:30Z,42.805,6.029,13.2974,4.59979,2470.24,2020-11-20T11:13:27Z
2020-11-20T09:15:33Z,42.805,6.029,13.2971,4.59978,2470.227,2020-11-20T11:16:30Z
2020-11-20T09:18:37Z,42.805,6.029,13.2974,4.59982,2470.24,2020-11-20T11:19:33Z
2020-11-20T09:21:40Z,42.805,6.029,13.2971,4.59986,2470.227,2020-11-20T11:22:37Z
2020-11-20T09:24:43Z,42.805,6.029,13.2973,4.59981,2470.203,2020-11-20T11:25:40Z
2020-11-20T09:27:46Z,42.805,6.029,13.2973,4.59980,2470.25,2020-11-20T11:28:43Z
2020-11-20T09:30:49Z,42.805,6.029,13.2984,4.59987,2470.203,2020-11-20T11:31:46Z
2020-11-20T09:33:52Z,42.805,6.029,13.2971,4.59984,2470.227,2020-11-20T11:34:49Z
2020-11-20T09:36:55Z,42.805,6.029,13.2972,4.59980,2470.25,2020-11-20T11:37:52Z
2020-11-20T09:39:58Z,42.805,6.029,13.2971,4.59981,2470.227,2020-11-20T11:40:55Z
2020-11-20T09:43:02Z,42.805,6.029,13.2971,4.59979,2470.24,2020-11-20T11:43:58Z
2020-11-20T09:46:05Z,42.805,6.029,13.2979,4.59988,2470.227,2020-11-20T11:47:02Z
2020-11-20T09:49:08Z,42.805,6.029,13.2982,4.60011,2470.264,2020-11-20T11:50:05Z
2020-11-20T09:52:11Z,42.805,6.029,13.2974,4.59989,2470.24,2020-11-20T11:53:08Z
2020-11-20T09:55:14Z,42.805,6.029,13.2974,4.59990,2470.264,2020-11-20T11:56:11Z
2020-11-20T09:58:17Z,42.805,6.029,13.2977,4.59981,2470.25,2020-11-20T11:59:14Z
2020-11-20T10:01:20Z,42.805,6.029,13.2974,4.59986,2470.227,2020-11-20T12:02:17Z
2020-11-20T10:04:23Z,42.805,6.029,13.2972,4.59987,2470.24,2020-11-20T12:05:20Z
2020-11-20T10:07:27Z,42.805,6.029,13.2973,4.59989,2470.287,2020-11-20T12:08:24Z
2020-11-20T10:10:30Z,42.805,6.029,13.2976,4.59983,2470.25,2020-11-20T12:11:27Z
2020-11-20T10:13:33Z,42.805,6.029,13.2974,4.59984,2470.264,2020-11-20T12:14:30Z
2020-11-20T10:16:36Z,42.805,6.029,13.2975,4.59993,2470.264,2020-11-20T12:17:33Z
2020-11-20T10:19:39Z,42.805,6.029,13.2975,4.59981,2470.273,2020-11-20T12:20:36Z
2020-11-20T10:22:42Z,42.805,6.029,13.2972,4.59982,2470.25,2020-11-20T12:23:39Z
2020-11-20T10:25:45Z,42.805,6.029,13.2976,4.59981,2470.25,2020-11-20T12:26:42Z
2020-11-20T10:28:48Z,42.805,6.029,13.2974,4.59982,2470.25,2020-11-20T12:29:45Z
2020-11-20T10:31:52Z,42.805,6.029,13.2974,4.59983,2470.264,2020-11-20T12:32:49Z
2020-11-20T10:34:55Z,42.805,6.029,13.2972,4.59985,2470.25,2020-11-20T12:35:52Z
2020-11-20T10:37:58Z,42.805,6.029,13.2974,4.59990,2470.25,2020-11-20T12:38:55Z
2020-11-20T10:41:01Z,42.805,6.029,13.2973,4.59988,2470.273,2020-11-20T12:41:58Z
2020-11-20T10:44:04Z,42.805,6.029,13.2975,4.59991,2470.25,2020-11-20T12:45:01Z
2020-11-20T10:47:07Z,42.805,6.029,13.2976,4.59992,2470.287,2020-11-20T12:48:04Z
2020-11-20T10:50:10Z,42.805,6.029,13.2972,4.59995,2470.25,2020-11-20T12:51:07Z
2020-11-20T10:53:14Z,42.805,6.029,13.2976,4.59990,2470.25,2020-11-20T12:54:10Z
2020-11-20T10:56:17Z,42.805,6.029,13.2974,4.59991,2470.24,2020-11-20T12:57:14Z
2020-11-20T10:59:20Z,42.805,6.029,13.2974,4.59989,2470.273,2020-11-20T13:00:17Z
2020-11-20T11:02:23Z,42.805,6.029,13.2972,4.59988,2470.273,2020-11-20T13:03:20Z
2020-11-20T11:05:26Z,42.805,6.029,13.2975,4.60011,2470.227,2020-11-20T13:06:23Z
2020-11-20T11:08:29Z,42.805,6.029,13.2972,4.59985,2470.264,2020-11-20T13:09:26Z
2020-11-20T11:11:32Z,42.805,6.029,13.2978,4.59992,2470.25,2020-11-20T13:12:29Z
2020-11-20T11:14:35Z,42.805,6.029,13.2973,4.59996,2470.31,2020-11-20T13:15:32Z
2020-11-20T11:17:39Z,42.805,6.029,13.2974,4.59996,2470.25,2020-11-20T13:18:35Z
2020-11-20T11:20:42Z,42.805,6.029,13.2976,4.59996,2470.25,2020-11-20T13:21:39Z
2020-11-20T11:23:45Z,42.805,6.029,13.2979,4.59997,2470.25,2020-11-20T13:24:42Z
2020-11-20T11:26:48Z,42.805,6.029,13.2974,4.60011,2470.25,2020-11-20T13:27:45Z
2020-11-20T11:29:51Z,42.805,6.029,13.2973,4.59991,2470.25,2020-11-20T13:30:48Z
2020-11-20T11:32:54Z,42.805,6.029,13.2976,4.60001,2470.25,2020-11-20T13:33:51Z
2020-11-20T11:35:57Z,42.805,6.029,13.2975,4.60026,2470.264,2020-11-20T13:36:54Z
2020-11-20T11:39:00Z,42.805,6.029,13.2985,4.60010,2470.273,2020-11-20T13:39:57Z
2020-11-20T11:42:04Z,42.805,6.029,13.2987,4.60021,2470.25,2020-11-20T13:43:00Z
2020-11-20T11:45:07Z,42.805,6.029,13.2983,4.60057,2470.25,2020-11-20T13:46:04Z
2020-11-20T11:48:10Z,42.805,6.029,13.2976,4.60069,2470.287,2020-11-20T13:49:07Z
2020-11-20T11:51:13Z,42.805,6.029,13.2981,4.60025,2470.25,2020-11-20T13:52:10Z
2020-11-20T11:54:16Z,42.805,6.029,13.3004,4.60010,2470.287,2020-11-20T13:55:13Z
2020-11-20T11:57:19Z,42.805,6.029,13.2991,4.60002,2470.227,2020-11-20T13:58:16Z
2020-11-20T12:00:22Z,42.805,6.029,13.3001,4.60007,2470.227,2020-11-20T14:01:19Z
2020-11-20T12:03:25Z,42.805,6.029,13.2995,4.60018,2470.25,2020-11-20T14:04:22Z
2020-11-20T12:06:29Z,42.805,6.029,13.3004,4.60045,2470.24,2020-11-20T14:07:25Z
2020-11-20T12:09:32Z,42.805,6.029,13.3019,4.60049,2470.25,2020-11-20T14:10:29Z
2020-11-20T12:12:35Z,42.805,6.029,13.3000,4.60033,2470.264,2020-11-20T14:13:32Z
2020-11-20T12:15:38Z,42.805,6.029,13.2986,4.60034,2470.264,2020-11-20T14:16:35Z
2020-11-20T12:18:41Z,42.805,6.029,13.2991,4.60054,2470.203,2020-11-20T14:19:38Z
2020-11-20T12:21:44Z,42.805,6.029,13.2983,4.60092,2470.264,2020-11-20T14:22:41Z
2020-11-20T12:24:47Z,42.805,6.029,13.2978,4.60036,2470.264,2020-11-20T14:25:44Z
2020-11-20T12:27:50Z,42.805,6.029,13.2982,4.59996,2470.227,2020-11-20T14:28:47Z
2020-11-20T12:30:54Z,42.805,6.029,13.2976,4.60014,2470.25,2020-11-20T14:31:50Z
2020-11-20T12:33:57Z,42.805,6.029,13.2974,4.60003,2470.24,2020-11-20T14:34:54Z
2020-11-20T12:37:00Z,42.805,6.029,13.2983,4.59994,2470.24,2020-11-20T14:37:57Z
2020-11-20T12:40:03Z,42.805,6.029,13.2972,4.59997,2470.227,2020-11-20T14:41:00Z
2020-11-20T12:43:06Z,42.805,6.029,13.2973,4.60003,2470.203,2020-11-20T14:44:03Z
2020-11-20T12:46:09Z,42.805,6.029,13.2972,4.60020,2470.24,2020-11-20T14:47:06Z
2020-11-20T12:49:12Z,42.805,6.029,13.2973,4.60007,2470.217,2020-11-20T14:50:09Z
2020-11-20T12:52:15Z,42.805,6.029,13.2974,4.60011,2470.25,2020-11-20T14:53:12Z
2020-11-20T12:55:19Z,42.805,6.029,13.2974,4.60013,2470.203,2020-11-20T14:56:15Z
2020-11-20T12:58:22Z,42.805,6.029,13.2974,4.60009,2470.25,2020-11-20T14:59:19Z
2020-11-20T13:01:25Z,42.805,6.029,13.2971,4.60010,2470.24,2020-11-20T15:02:22Z
2020-11-20T13:04:28Z,42.805,6.029,13.2971,4.59999,2470.203,2020-11-20T15:05:25Z
2020-11-20T13:07:31Z,42.805,6.029,13.2975,4.59994,2470.25,2020-11-20T15:08:28Z
2020-11-20T13:10:34Z,42.805,6.029,13.2973,4.59998,2470.25,2020-11-20T15:11:31Z
2020-11-20T13:13:37Z,42.805,6.029,13.2974,4.59999,2470.24,2020-11-20T15:14:34Z
2020-11-20T13:16:40Z,42.805,6.029,13.2973,4.60004,2470.203,2020-11-20T15:17:37Z
2020-11-20T13:19:44Z,42.805,6.029,13.2971,4.59990,2470.24,2020-11-20T15:20:40Z
2020-11-20T13:22:47Z,42.805,6.029,13.2974,4.59991,2470.217,2020-11-20T15:23:44Z
2020-11-20T13:25:50Z,42.805,6.029,13.2974,4.59996,2470.227,2020-11-20T15:26:47Z
2020-11-20T13:28:53Z,42.805,6.029,13.2973,4.59994,2470.227,2020-11-20T15:29:50Z
2020-11-20T13:31:56Z,42.805,6.029,13.2970,4.59992,2470.227,2020-11-20T15:32:53Z
2020-11-20T13:34:59Z,42.805,6.029,13.2968,4.59989,2470.194,2020-11-20T15:35:56Z
2020-11-20T13:38:02Z,42.805,6.029,13.2974,4.59989,2470.203,2020-11-20T15:38:59Z
2020-11-20T13:41:05Z,42.805,6.029,13.2973,4.59996,2470.203,2020-11-20T15:42:02Z
2020-11-20T13:44:09Z,42.805,6.029,13.2971,4.59996,2470.227,2020-11-20T15:45:06Z
2020-11-20T13:47:12Z,42.805,6.029,13.2977,4.59993,2470.217,2020-11-20T15:48:09Z
2020-11-20T13:50:15Z,42.805,6.029,13.2972,4.59996,2470.227,2020-11-20T15:51:12Z
2020-11-20T13:53:18Z,42.805,6.029,13.2974,4.59986,2470.227,2020-11-20T15:54:15Z
2020-11-20T13:56:21Z,42.805,6.029,13.2972,4.59990,2470.217,2020-11-20T15:57:18Z
2020-11-20T13:59:24Z,42.805,6.029,13.2975,4.59993,2470.203,2020-11-20T16:00:21Z
2020-11-20T14:02:27Z,42.805,6.029,13.2975,4.59987,2470.217,2020-11-20T16:03:24Z
2020-11-20T14:05:30Z,42.805,6.029,13.2975,4.59986,2470.25,2020-11-20T16:06:27Z
2020-11-20T14:08:34Z,42.805,6.029,13.2972,4.59993,2470.203,2020-11-20T16:09:31Z
2020-11-20T14:11:37Z,42.805,6.029,13.2978,4.59987,2470.18,2020-11-20T16:12:34Z
2020-11-20T14:14:40Z,42.805,6.029,13.2976,4.59994,2470.203,2020-11-20T16:15:37Z
2020-11-20T14:17:43Z,42.805,6.029,13.2972,4.59996,2470.203,2020-11-20T16:18:40Z
2020-11-20T14:20:46Z,42.805,6.029,13.2974,4.59991,2470.18,2020-11-20T16:21:43Z
2020-11-20T14:23:49Z,42.805,6.029,13.2974,4.59988,2470.194,2020-11-20T16:24:46Z
2020-11-20T14:26:52Z,42.805,6.029,13.2975,4.59987,2470.18,2020-11-20T16:27:49Z
2020-11-20T14:29:55Z,42.805,6.029,13.2977,4.59986,2470.194,2020-11-20T16:30:52Z
2020-11-20T14:32:59Z,42.805,6.029,13.2970,4.59993,2470.217,2020-11-20T16:33:56Z
2020-11-20T14:36:02Z,42.805,6.029,13.2975,4.59982,2470.194,2020-11-20T16:36:59Z
2020-11-20T14:39:05Z,42.805,6.029,13.2976,4.59981,2470.194,2020-11-20T16:40:02Z
2020-11-20T14:42:08Z,42.805,6.029,13.2974,4.59986,2470.166,2020-11-20T16:43:05Z
2020-11-20T14:45:11Z,42.805,6.029,13.2972,4.59981,2470.18,2020-11-20T16:46:08Z
2020-11-20T14:48:14Z,42.805,6.029,13.2975,4.59990,2470.203,2020-11-20T16:49:11Z
2020-11-20T14:51:17Z,42.805,6.029,13.2974,4.59983,2470.18,2020-11-20T16:52:14Z
2020-11-20T14:54:20Z,42.805,6.029,13.2974,4.59981,2470.18,2020-11-20T16:55:17Z
2020-11-20T14:57:24Z,42.805,6.029,13.2972,4.59981,2470.18,2020-11-20T16:58:21Z
2020-11-20T15:00:27Z,42.805,6.029,13.2973,4.59980,2470.156,2020-11-20T17:01:24Z